Time,TemperatureF,DewpointF,PressureIn,WindDirection,WindDirectionDegrees,WindSpeedMPH,WindSpeedGustMPH,Humidity,HourlyPrecipIn,Conditions,Clouds,dailyrainin,SolarRadiationWatts/m^2,SoftwareType,DateUTC
2013-02-27 00:01:00,42.0,40.0,-100.00,South,175,0.0,1.0,93,-99.99,,,0.00,0.000000,,2013-02-27 08:01:00,
2013-02-27 00:11:00,42.0,40.0,-100.00,South,175,0.0,1.0,93,-99.99,,,0.00,0.000000,,2013-02-27 08:11:00,
2013-02-27 00:41:00,41.0,39.0,-100.00,East,87,1.0,2.0,92,-99.99,,,0.00,0.000000,,2013-02-27 08:41:00,
2013-02-27 00:52:00,41.0,39.0,-100.00,East,87,1.0,2.0,92,-99.99,,,0.00,0.000000,,2013-02-27 08:52:00,
2013-02-27 01:01:00,41.0,39.0,-100.00,East,87,1.0,2.0,92,-99.99,,,0.00,0.000000,,2013-02-27 09:01:00,
2013-02-27 01:11:00,41.0,39.0,-100.00,East,87,1.0,2.0,92,-99.99,,,0.00,0.000000,,2013-02-27 09:11:00,
2013-02-27 01:41:00,41.0,39.0,-100.00,North,0,0.0,0.0,93,-99.99,,,0.00,0.000000,,2013-02-27 09:41:00,
2013-02-27 01:52:00,41.0,39.0,-100.00,North,0,0.0,0.0,93,-99.99,,,0.00,0.000000,,2013-02-27 09:52:00,
2013-02-27 02:01:00,41.0,39.0,-100.00,North,0,0.0,0.0,93,-99.99,,,0.00,0.000000,,2013-02-27 10:01:00,
2013-02-27 02:12:00,41.0,39.0,-100.00,North,0,0.0,0.0,93,-99.99,,,0.00,0.000000,,2013-02-27 10:12:00,
2013-02-27 02:42:00,40.0,39.0,-100.00,ESE,120,1.0,2.0,94,-99.99,,,0.00,0.000000,,2013-02-27 10:42:00,
2013-02-27 02:52:00,40.0,39.0,-100.00,ESE,120,1.0,2.0,94,-99.99,,,0.00,0.000000,,2013-02-27 10:52:00,
2013-02-27 03:01:00,40.0,39.0,-100.00,ESE,120,1.0,2.0,94,-99.99,,,0.00,0.000000,,2013-02-27 11:01:00,
2013-02-27 03:11:00,40.0,39.0,-100.00,ESE,120,1.0,2.0,94,-99.99,,,0.00,0.000000,,2013-02-27 11:11:00,
2013-02-27 03:41:00,41.0,40.0,-100.00,East,84,0.0,2.0,95,-99.99,,,0.00,0.000000,,2013-02-27 11:41:00,
2013-02-27 03:52:00,41.0,40.0,-100.00,East,84,0.0,2.0,95,-99.99,,,0.00,0.000000,,2013-02-27 11:52:00,
2013-02-27 04:02:00,41.0,40.0,-100.00,East,84,0.0,2.0,95,-99.99,,,0.00,0.000000,,2013-02-27 12:02:00,
2013-02-27 04:12:00,41.0,40.0,-100.00,East,84,0.0,2.0,95,-99.99,,,0.00,0.000000,,2013-02-27 12:12:00,
2013-02-27 04:42:00,42.0,40.0,-100.00,East,79,1.0,2.0,95,-99.99,,,0.00,0.000000,,2013-02-27 12:42:00,
2013-02-27 04:52:00,42.0,40.0,-100.00,East,79,1.0,2.0,95,-99.99,,,0.00,0.000000,,2013-02-27 12:52:00,
2013-02-27 05:02:00,42.0,40.0,-100.00,East,79,1.0,2.0,95,-99.99,,,0.00,0.000000,,2013-02-27 13:02:00,
2013-02-27 05:11:00,42.0,40.0,-100.00,East,79,1.0,2.0,95,-99.99,,,0.00,0.000000,,2013-02-27 13:11:00,
2013-02-27 05:42:00,42.0,41.0,-100.00,ESE,103,0.0,2.0,94,-99.99,,,0.00,0.000000,,2013-02-27 13:42:00,
2013-02-27 05:52:00,42.0,41.0,-100.00,ESE,103,0.0,2.0,94,-99.99,,,0.00,0.000000,,2013-02-27 13:52:00,
2013-02-27 06:02:00,42.0,41.0,-100.00,ESE,103,0.0,2.0,94,-99.99,,,0.00,0.000000,,2013-02-27 14:02:00,
2013-02-27 06:11:00,42.0,41.0,-100.00,ESE,103,0.0,2.0,94,-99.99,,,0.00,0.000000,,2013-02-27 14:11:00,
2013-02-27 06:42:00,43.0,41.0,-100.00,ESE,120,0.0,2.0,91,-99.99,,,0.00,0.000000,,2013-02-27 14:42:00,
2013-02-27 06:52:00,43.0,41.0,-100.00,ESE,120,0.0,2.0,91,-99.99,,,0.00,0.000000,,2013-02-27 14:52:00,
2013-02-27 07:02:00,43.0,41.0,-100.00,ESE,120,0.0,2.0,91,-99.99,,,0.00,0.000000,,2013-02-27 15:02:00,
2013-02-27 07:12:00,43.0,41.0,-100.00,ESE,120,0.0,2.0,91,-99.99,,,0.00,0.000000,,2013-02-27 15:12:00,
2013-02-27 07:42:00,43.0,40.0,-100.00,ENE,75,1.0,3.0,89,-99.99,,,0.00,3.840000,,2013-02-27 15:42:00,
2013-02-27 07:52:00,43.0,40.0,-100.00,ENE,75,1.0,3.0,89,-99.99,,,0.00,3.840000,,2013-02-27 15:52:00,
2013-02-27 08:01:00,43.0,40.0,-100.00,ENE,75,1.0,3.0,89,-99.99,,,0.00,3.840000,,2013-02-27 16:01:00,
2013-02-27 08:11:00,43.0,40.0,-100.00,ENE,75,1.0,3.0,89,-99.99,,,0.00,3.840000,,2013-02-27 16:11:00,
2013-02-27 08:42:00,44.0,41.0,-100.00,ESE,117,1.0,3.0,88,-99.99,,,0.00,48.119999,,2013-02-27 16:42:00,
2013-02-27 08:52:00,44.0,41.0,-100.00,ESE,117,1.0,3.0,88,-99.99,,,0.00,48.119999,,2013-02-27 16:52:00,
2013-02-27 09:01:00,44.0,41.0,-100.00,ESE,117,1.0,3.0,88,-99.99,,,0.00,48.119999,,2013-02-27 17:01:00,
2013-02-27 09:11:00,44.0,41.0,-100.00,ESE,117,1.0,3.0,88,-99.99,,,0.00,48.119999,,2013-02-27 17:11:00,
2013-02-27 09:41:00,46.0,41.0,-100.00,South,187,1.0,4.0,79,-99.99,,,0.00,124.010002,,2013-02-27 17:41:00,
2013-02-27 09:52:00,46.0,41.0,-100.00,South,187,1.0,4.0,79,-99.99,,,0.00,124.010002,,2013-02-27 17:52:00,
2013-02-27 10:01:00,46.0,41.0,-100.00,South,187,1.0,4.0,79,-99.99,,,0.00,124.010002,,2013-02-27 18:01:00,
2013-02-27 10:11:00,46.0,41.0,-100.00,South,187,1.0,4.0,79,-99.99,,,0.00,124.010002,,2013-02-27 18:11:00,
2013-02-27 10:42:00,52.0,41.0,-100.00,SSW,199,4.0,10.0,67,-99.99,,,0.00,316.119995,,2013-02-27 18:42:00,
2013-02-27 10:52:00,52.0,41.0,-100.00,SSW,199,4.0,10.0,67,-99.99,,,0.00,316.119995,,2013-02-27 18:52:00,
2013-02-27 11:01:00,52.0,41.0,-100.00,SSW,199,4.0,10.0,67,-99.99,,,0.00,316.119995,,2013-02-27 19:01:00,
2013-02-27 11:11:00,52.0,41.0,-100.00,SSW,199,4.0,10.0,67,-99.99,,,0.00,316.119995,,2013-02-27 19:11:00,
2013-02-27 11:32:00,53.0,38.0,-100.00,SSW,207,5.0,18.0,57,-99.99,,,0.00,336.109985,,2013-02-27 19:32:00,
2013-02-27 11:42:00,53.0,38.0,-100.00,SSW,207,5.0,18.0,57,-99.99,,,0.00,336.109985,,2013-02-27 19:42:00,
2013-02-27 11:52:00,53.0,38.0,-100.00,SSW,207,5.0,18.0,57,-99.99,,,0.00,336.109985,,2013-02-27 19:52:00,
2013-02-27 12:01:00,53.0,38.0,-100.00,SSW,207,5.0,18.0,57,-99.99,,,0.00,336.109985,,2013-02-27 20:01:00,
2013-02-27 12:11:00,53.0,38.0,-100.00,SSW,207,5.0,18.0,57,-99.99,,,0.00,336.109985,,2013-02-27 20:11:00,
2013-02-27 12:42:00,54.0,38.0,-100.00,SSW,204,5.0,16.0,54,-99.99,,,-99.99,499.750000,,2013-02-27 20:42:00,
2013-02-27 12:52:00,54.0,38.0,-100.00,SSW,204,5.0,16.0,54,-99.99,,,-99.99,499.750000,,2013-02-27 20:52:00,
2013-02-27 13:01:00,54.0,38.0,-100.00,SSW,204,5.0,16.0,54,-99.99,,,-99.99,499.750000,,2013-02-27 21:01:00,
2013-02-27 13:11:00,54.0,38.0,-100.00,SSW,204,5.0,16.0,54,-99.99,,,-99.99,499.750000,,2013-02-27 21:11:00,
2013-02-27 13:42:00,53.0,40.0,-100.00,SSW,205,5.0,14.0,60,-99.99,,,0.00,234.529999,,2013-02-27 21:42:00,
2013-02-27 13:52:00,53.0,40.0,-100.00,SSW,205,5.0,14.0,60,-99.99,,,0.00,234.529999,,2013-02-27 21:52:00,
2013-02-27 14:01:00,53.0,40.0,-100.00,SSW,205,5.0,14.0,60,-99.99,,,0.00,234.529999,,2013-02-27 22:01:00,
2013-02-27 14:11:00,53.0,40.0,-100.00,SSW,205,5.0,14.0,60,-99.99,,,0.00,234.529999,,2013-02-27 22:11:00,
2013-02-27 14:41:00,53.0,45.0,-100.00,SSW,200,4.0,11.0,74,-99.99,,,0.00,163.639999,,2013-02-27 22:41:00,
2013-02-27 14:52:00,53.0,45.0,-100.00,SSW,200,4.0,11.0,74,-99.99,,,0.00,163.639999,,2013-02-27 22:52:00,
2013-02-27 15:01:00,53.0,45.0,-100.00,SSW,200,4.0,11.0,74,-99.99,,,0.00,163.639999,,2013-02-27 23:01:00,
2013-02-27 15:11:00,53.0,45.0,-100.00,SSW,200,4.0,11.0,74,-99.99,,,0.00,163.639999,,2013-02-27 23:11:00,
2013-02-27 15:32:00,52.0,48.0,-100.00,SSW,193,5.0,12.0,86,-99.99,,,0.00,100.300003,,2013-02-27 23:32:00,
2013-02-27 15:42:00,52.0,48.0,-100.00,SSW,193,5.0,12.0,86,-99.99,,,0.00,100.300003,,2013-02-27 23:42:00,
2013-02-27 15:53:00,52.0,48.0,-100.00,SSW,193,5.0,12.0,86,-99.99,,,0.00,100.300003,,2013-02-27 23:53:00,
2013-02-27 16:01:00,52.0,48.0,-100.00,SSW,193,5.0,12.0,86,-99.99,,,0.00,100.300003,,2013-02-28 00:01:00,
2013-02-27 16:11:00,52.0,48.0,-100.00,SSW,193,5.0,12.0,86,-99.99,,,0.00,100.300003,,2013-02-28 00:11:00,
2013-02-27 16:32:00,51.0,49.0,-100.00,SSW,194,4.0,9.0,93,-99.99,,,0.00,32.430000,,2013-02-28 00:32:00,
2013-02-27 16:42:00,51.0,49.0,-100.00,SSW,194,4.0,9.0,93,-99.99,,,0.00,32.430000,,2013-02-28 00:42:00,
2013-02-27 16:52:00,51.0,49.0,-100.00,SSW,194,4.0,9.0,93,-99.99,,,0.00,32.430000,,2013-02-28 00:52:00,
2013-02-27 17:01:00,51.0,49.0,-100.00,SSW,194,4.0,9.0,93,-99.99,,,0.00,32.430000,,2013-02-28 01:01:00,
2013-02-27 17:11:00,51.0,49.0,-100.00,SSW,194,4.0,9.0,93,-99.99,,,0.00,32.430000,,2013-02-28 01:11:00,
2013-02-27 17:41:00,50.0,49.0,-100.00,SW,214,1.0,3.0,96,-99.99,,,0.01,31.030001,,2013-02-28 01:41:00,
2013-02-27 17:52:00,50.0,49.0,-100.00,SW,214,1.0,3.0,96,-99.99,,,0.01,31.030001,,2013-02-28 01:52:00,
2013-02-27 18:01:00,50.0,49.0,-100.00,SW,214,1.0,3.0,96,-99.99,,,0.01,31.030001,,2013-02-28 02:01:00,
2013-02-27 18:11:00,50.0,49.0,-100.00,SW,214,1.0,3.0,96,-99.99,,,0.01,31.030001,,2013-02-28 02:11:00,
2013-02-27 19:01:00,50.0,49.0,-100.00,SSW,197,3.0,9.0,97,-99.99,,,0.01,0.580000,,2013-02-28 03:01:00,
2013-02-27 19:11:00,50.0,49.0,-100.00,SSW,197,3.0,9.0,97,-99.99,,,0.01,0.580000,,2013-02-28 03:11:00,
2013-02-27 19:31:00,50.0,50.0,-100.00,South,183,5.0,12.0,97,-99.99,,,0.01,0.000000,,2013-02-28 03:31:00,
2013-02-27 19:41:00,50.0,50.0,-100.00,South,183,5.0,12.0,97,-99.99,,,0.01,0.000000,,2013-02-28 03:41:00,
2013-02-27 19:52:00,50.0,50.0,-100.00,South,183,5.0,12.0,97,-99.99,,,0.01,0.000000,,2013-02-28 03:52:00,
2013-02-27 20:01:00,50.0,50.0,-100.00,South,183,5.0,12.0,97,-99.99,,,0.01,0.000000,,2013-02-28 04:01:00,
2013-02-27 20:11:00,50.0,50.0,-100.00,South,183,5.0,12.0,97,-99.99,,,0.01,0.000000,,2013-02-28 04:11:00,
2013-02-27 20:42:00,51.0,50.0,-100.00,South,190,5.0,11.0,96,-99.99,,,0.01,0.000000,,2013-02-28 04:42:00,
2013-02-27 20:52:00,51.0,50.0,-100.00,South,190,5.0,11.0,96,-99.99,,,0.01,0.000000,,2013-02-28 04:52:00,
2013-02-27 21:01:00,51.0,50.0,-100.00,South,190,5.0,11.0,96,-99.99,,,0.01,0.000000,,2013-02-28 05:01:00,
2013-02-27 21:11:00,51.0,50.0,-100.00,South,190,5.0,11.0,96,-99.99,,,0.01,0.000000,,2013-02-28 05:11:00,
2013-02-27 21:42:00,51.0,50.0,-100.00,South,191,6.0,13.0,96,-99.99,,,0.01,0.000000,,2013-02-28 05:42:00,
2013-02-27 21:52:00,51.0,50.0,-100.00,South,191,6.0,13.0,96,-99.99,,,0.01,0.000000,,2013-02-28 05:52:00,
2013-02-27 22:01:00,51.0,50.0,-100.00,South,191,6.0,13.0,96,-99.99,,,0.01,0.000000,,2013-02-28 06:01:00,
2013-02-27 22:11:00,51.0,50.0,-100.00,South,191,6.0,13.0,96,-99.99,,,0.01,0.000000,,2013-02-28 06:11:00,
2013-02-27 22:42:00,51.0,50.0,-100.00,SSW,198,8.0,19.0,95,-99.99,,,0.01,0.000000,,2013-02-28 06:42:00,
2013-02-27 22:52:00,51.0,50.0,-100.00,SSW,198,8.0,19.0,95,-99.99,,,0.01,0.000000,,2013-02-28 06:52:00,
2013-02-27 23:01:00,51.0,50.0,-100.00,SSW,198,8.0,19.0,95,-99.99,,,0.01,0.000000,,2013-02-28 07:01:00,
2013-02-27 23:11:00,51.0,50.0,-100.00,SSW,198,8.0,19.0,95,-99.99,,,0.01,0.000000,,2013-02-28 07:11:00,
2013-02-27 23:41:00,51.0,50.0,-100.00,South,189,8.0,20.0,95,-99.99,,,0.01,0.000000,,2013-02-28 07:41:00,
2013-02-27 23:52:00,51.0,50.0,-100.00,South,189,8.0,20.0,95,-99.99,,,0.01,0.000000,,2013-02-28 07:52:00,